NKS1838 KDTW-KDFW

Flight info

Callsign NKS1838
Flight time N/A
Altitude 38000
Route SNDRS3 BGHRT STL RZC FSM RRNET BRDJE5
Aircraft A20N/M-SDE2E3FGHIRWXY/LB1

Departure

Time 2026-05-07 12:31
Airport Detroit Metropolitan Wayne County Airport (KDTW)

Arrival

Time N/A
Airport Dallas Fort Worth International Airport (KDFW)
Time Latitude Longitude Altitude Speed Heading
2026-05-07 12:10 42.21371 -83.35343 648 ft 0 kts 298°
2026-05-07 12:19 42.21367 -83.35333 646 ft 1 kts 297°
2026-05-07 12:19 42.21363 -83.35324 647 ft 1 kts 299°
2026-05-07 12:19 42.21358 -83.35312 652 ft 2 kts 301°
2026-05-07 12:20 42.21350 -83.35294 649 ft 2 kts 327°
2026-05-07 12:20 42.21337 -83.35293 647 ft 1 kts 29°
2026-05-07 12:20 42.21334 -83.35295 647 ft 0 kts 27°
2026-05-07 12:20 42.21307 -83.35316 646 ft 6 kts 30°
2026-05-07 12:21 42.21270 -83.35346 646 ft 6 kts 32°
2026-05-07 12:21 42.21246 -83.35368 647 ft 0 kts 33°
2026-05-07 12:22 42.21245 -83.35368 647 ft 0 kts 34°
2026-05-07 12:22 42.21271 -83.35345 646 ft 6 kts 34°
2026-05-07 12:22 42.21284 -83.35333 646 ft 0 kts 34°
2026-05-07 12:22 42.21282 -83.35335 646 ft 0 kts 34°
2026-05-07 12:23 42.21277 -83.35339 646 ft 2 kts 34°
2026-05-07 12:23 42.21316 -83.35303 647 ft 12 kts 34°
2026-05-07 12:23 42.21348 -83.35290 647 ft 4 kts 12°
2026-05-07 12:23 42.21458 -83.35207 646 ft 45 kts 27°
2026-05-07 12:24 42.21535 -83.35183 647 ft 0 kts 19°
2026-05-07 12:24 42.21545 -83.35163 646 ft 12 kts 52°
2026-05-07 12:24 42.21614 -83.35010 647 ft 26 kts 50°
2026-05-07 12:24 42.21746 -83.34833 648 ft 30 kts 44°
2026-05-07 12:25 42.21831 -83.34672 646 ft 16 kts 86°
2026-05-07 12:25 42.21859 -83.34524 648 ft 19 kts 43°
2026-05-07 12:25 42.21975 -83.34413 646 ft 24 kts 27°
2026-05-07 12:25 42.22120 -83.34311 647 ft 27 kts 29°
2026-05-07 12:26 42.22296 -83.34178 646 ft 31 kts 27°
2026-05-07 12:26 42.22487 -83.34045 646 ft 34 kts 26°
2026-05-07 12:26 42.22668 -83.33911 646 ft 20 kts 28°
2026-05-07 12:26 42.22789 -83.33824 646 ft 23 kts 28°
2026-05-07 12:27 42.22849 -83.33744 645 ft 0 kts 70°
2026-05-07 12:27 42.22850 -83.33741 645 ft 0 kts 70°
2026-05-07 12:27 42.22850 -83.33738 645 ft 2 kts 70°
2026-05-07 12:27 42.22848 -83.33688 644 ft 9 kts 98°
2026-05-07 12:28 42.22799 -83.33633 645 ft 10 kts 172°
2026-05-07 12:28 42.22786 -83.33639 645 ft 1 kts 213°
2026-05-07 12:28 42.22784 -83.33641 645 ft 0 kts 213°
2026-05-07 12:29 42.22700 -83.33715 646 ft 40 kts 210°
2026-05-07 12:29 42.22640 -83.33745 647 ft 0 kts 216°
2026-05-07 12:29 42.22638 -83.33747 647 ft 0 kts 216°
2026-05-07 12:30 42.22637 -83.33749 647 ft 5 kts 216°
2026-05-07 12:30 42.22394 -83.33940 649 ft 87 kts 210°
2026-05-07 12:30 42.21741 -83.34436 651 ft 153 kts 208°
2026-05-07 12:31 42.20874 -83.35038 1033 ft 176 kts 209°
2026-05-07 12:31 42.19754 -83.35823 1559 ft 201 kts 209°
2026-05-07 12:31 42.18492 -83.36687 2114 ft 219 kts 209°
2026-05-07 12:31 42.17079 -83.37566 2746 ft 236 kts 201°
2026-05-07 12:32 42.15494 -83.38137 3127 ft 254 kts 194°
2026-05-07 12:32 42.13822 -83.38596 3601 ft 260 kts 194°
2026-05-07 12:32 42.12122 -83.39095 4252 ft 260 kts 195°
2026-05-07 12:32 42.10409 -83.39661 4903 ft 260 kts 197°
2026-05-07 12:33 42.07060 -83.41235 6071 ft 260 kts 212°
2026-05-07 12:33 42.05750 -83.42390 6566 ft 260 kts 219°
2026-05-07 12:33 42.04306 -83.43842 6898 ft 270 kts 219°
2026-05-07 12:34 42.02789 -83.45351 6983 ft 286 kts 219°
2026-05-07 12:34 42.01202 -83.46914 6998 ft 300 kts 219°
2026-05-07 12:34 41.99535 -83.48547 7009 ft 311 kts 218°
2026-05-07 12:34 41.97836 -83.50220 7150 ft 312 kts 219°
2026-05-07 12:35 41.96183 -83.51912 7891 ft 296 kts 220°
2026-05-07 12:35 41.94663 -83.53488 8761 ft 279 kts 221°
2026-05-07 12:35 41.93348 -83.54852 9439 ft 274 kts 222°
2026-05-07 12:35 41.91986 -83.56265 9928 ft 275 kts 222°
2026-05-07 12:36 41.90562 -83.57745 10227 ft 282 kts 223°
2026-05-07 12:36 41.89081 -83.59283 10331 ft 293 kts 222°
2026-05-07 12:36 41.87480 -83.60939 10434 ft 303 kts 222°
2026-05-07 12:36 41.85848 -83.62620 10540 ft 309 kts 222°
2026-05-07 12:37 41.84262 -83.64248 10764 ft 310 kts 222°
2026-05-07 12:37 41.82589 -83.65961 11001 ft 311 kts 222°
2026-05-07 12:37 41.80949 -83.67642 11205 ft 311 kts 222°
2026-05-07 12:37 41.79297 -83.69335 11411 ft 312 kts 222°
2026-05-07 12:38 41.77609 -83.71066 11633 ft 312 kts 222°
2026-05-07 12:38 41.75913 -83.72804 11841 ft 313 kts 223°
2026-05-07 12:38 41.74231 -83.74527 12045 ft 313 kts 223°
2026-05-07 12:38 41.72574 -83.76223 12234 ft 314 kts 223°
2026-05-07 12:39 41.70874 -83.77962 12413 ft 314 kts 223°
2026-05-07 12:39 41.69154 -83.79580 12599 ft 318 kts 217°
2026-05-07 12:39 41.67313 -83.81047 12775 ft 318 kts 217°
2026-05-07 12:39 41.65438 -83.82548 12958 ft 319 kts 217°
2026-05-07 12:40 41.63582 -83.84039 13124 ft 319 kts 217°
2026-05-07 12:40 41.61818 -83.85456 13275 ft 320 kts 217°
2026-05-07 12:40 41.59954 -83.86954 13419 ft 320 kts 217°
2026-05-07 12:40 41.58068 -83.88468 13564 ft 320 kts 217°
2026-05-07 12:41 41.56219 -83.89952 13702 ft 321 kts 217°
2026-05-07 12:41 41.54327 -83.91468 13845 ft 321 kts 217°
2026-05-07 12:41 41.52415 -83.93000 13979 ft 322 kts 217°
2026-05-07 12:41 41.50543 -83.94498 14098 ft 322 kts 217°
2026-05-07 12:42 41.48700 -83.95973 14205 ft 322 kts 217°
2026-05-07 12:42 41.46831 -83.97467 14316 ft 323 kts 217°
2026-05-07 12:42 41.44966 -83.98956 14442 ft 323 kts 217°
2026-05-07 12:42 41.43174 -84.00387 14540 ft 323 kts 217°
2026-05-07 12:43 41.41346 -84.01844 14651 ft 324 kts 217°
2026-05-07 12:43 41.39451 -84.03354 14739 ft 324 kts 217°
2026-05-07 12:43 41.37574 -84.04850 14842 ft 324 kts 217°
2026-05-07 12:43 41.35696 -84.06345 14946 ft 325 kts 217°
2026-05-07 12:44 41.33827 -84.07831 15055 ft 325 kts 217°
2026-05-07 12:44 41.31930 -84.09339 15143 ft 325 kts 217°
2026-05-07 12:44 41.30018 -84.10857 15240 ft 325 kts 217°
2026-05-07 12:44 41.28091 -84.12387 15320 ft 326 kts 217°
2026-05-07 12:45 41.26305 -84.14052 15401 ft 320 kts 227°
2026-05-07 12:45 41.24941 -84.16042 15468 ft 314 kts 238°
2026-05-07 12:45 41.23915 -84.18418 15539 ft 311 kts 250°
2026-05-07 12:45 41.23167 -84.20953 15595 ft 310 kts 251°
2026-05-07 12:46 41.22422 -84.23487 15676 ft 310 kts 251°
2026-05-07 12:46 41.21737 -84.25792 15747 ft 310 kts 251°
2026-05-07 12:46 41.20976 -84.28340 15827 ft 311 kts 251°
2026-05-07 12:46 41.20205 -84.30915 15857 ft 311 kts 251°
2026-05-07 12:47 41.19591 -84.32960 15919 ft 311 kts 251°
2026-05-07 12:47 41.18851 -84.35427 15974 ft 311 kts 251°
2026-05-07 12:47 41.18080 -84.37995 16027 ft 312 kts 251°
2026-05-07 12:47 41.17311 -84.40554 16095 ft 312 kts 251°
2026-05-07 12:48 41.16558 -84.43058 16150 ft 312 kts 251°
2026-05-07 12:48 41.15888 -84.45284 16199 ft 312 kts 251°
2026-05-07 12:48 41.15131 -84.47794 16250 ft 312 kts 251°
2026-05-07 12:48 41.14372 -84.50312 16296 ft 313 kts 251°
2026-05-07 12:49 41.13673 -84.52626 16355 ft 313 kts 251°
2026-05-07 12:49 41.12962 -84.54979 16395 ft 313 kts 251°
2026-05-07 12:49 41.12211 -84.57464 16448 ft 313 kts 251°
2026-05-07 12:49 41.11424 -84.60062 16506 ft 313 kts 251°
2026-05-07 12:50 41.10640 -84.62655 16551 ft 313 kts 252°
2026-05-07 12:50 41.10005 -84.65303 16588 ft 311 kts 258°
2026-05-07 12:50 41.09549 -84.68031 16608 ft 312 kts 259°
2026-05-07 12:50 41.09253 -84.69824 16622 ft 312 kts 259°
2026-05-07 12:51 41.08662 -84.73363 16666 ft 313 kts 259°
2026-05-07 12:51 41.08198 -84.76114 16699 ft 313 kts 259°
2026-05-07 12:51 41.07739 -84.78830 16744 ft 313 kts 259°
2026-05-07 12:51 41.07278 -84.81554 16777 ft 313 kts 259°
2026-05-07 12:52 41.06826 -84.84219 16820 ft 313 kts 259°
2026-05-07 12:52 41.06361 -84.86958 16853 ft 313 kts 259°
2026-05-07 12:52 41.05900 -84.89670 16887 ft 313 kts 259°
2026-05-07 12:52 41.05433 -84.92417 16932 ft 313 kts 259°
2026-05-07 12:53 41.04971 -84.95124 16952 ft 313 kts 259°
2026-05-07 12:53 41.04507 -84.97839 16982 ft 313 kts 259°
2026-05-07 12:53 41.04033 -85.00614 17011 ft 313 kts 259°
2026-05-07 12:53 41.03572 -85.03305 17038 ft 313 kts 259°
2026-05-07 12:54 41.03099 -85.06062 17047 ft 314 kts 259°
2026-05-07 12:54 41.02615 -85.08878 17057 ft 314 kts 259°
2026-05-07 12:54 41.02301 -85.10701 17199 ft 310 kts 259°
2026-05-07 12:54 41.01839 -85.13380 17250 ft 310 kts 259°
2026-05-07 12:55 41.01207 -85.17045 17295 ft 310 kts 259°
2026-05-07 12:55 41.00889 -85.18886 17314 ft 310 kts 259°
2026-05-07 12:55 41.00417 -85.21612 17347 ft 310 kts 259°
2026-05-07 12:55 40.99960 -85.24246 17628 ft 302 kts 259°
2026-05-07 12:56 40.99511 -85.26818 18397 ft 281 kts 259°
2026-05-07 12:56 40.99147 -85.28900 19102 ft 262 kts 259°
2026-05-07 12:56 40.98769 -85.31066 19964 ft 239 kts 259°
2026-05-07 12:56 40.98424 -85.33044 20872 ft 216 kts 259°
2026-05-07 12:57 40.98118 -85.34805 21663 ft 199 kts 259°
2026-05-07 12:57 40.97815 -85.36555 22041 ft 199 kts 259°
2026-05-07 12:57 40.97514 -85.38291 22298 ft 201 kts 258°
2026-05-07 12:57 40.97210 -85.40045 22589 ft 201 kts 258°
2026-05-07 12:58 40.96908 -85.41780 22896 ft 200 kts 258°
2026-05-07 12:58 40.96601 -85.43530 23128 ft 203 kts 259°
2026-05-07 12:58 40.96295 -85.45276 23316 ft 205 kts 259°
2026-05-07 12:58 40.95991 -85.47014 23598 ft 204 kts 259°
2026-05-07 12:59 40.95707 -85.48636 23802 ft 204 kts 259°
2026-05-07 12:59 40.95400 -85.50386 23995 ft 205 kts 259°
2026-05-07 12:59 40.95114 -85.52012 24179 ft 205 kts 259°
2026-05-07 12:59 40.94799 -85.53806 24379 ft 205 kts 259°
2026-05-07 13:00 40.94481 -85.55612 24571 ft 205 kts 259°
2026-05-07 13:00 40.94166 -85.57388 24763 ft 205 kts 258°
2026-05-07 13:00 40.93853 -85.59168 24924 ft 205 kts 258°
2026-05-07 13:00 40.93536 -85.60964 25102 ft 205 kts 258°
2026-05-07 13:01 40.93215 -85.62779 25278 ft 205 kts 258°
2026-05-07 13:01 40.92898 -85.64570 25441 ft 205 kts 258°
2026-05-07 13:01 40.92579 -85.66371 25602 ft 205 kts 258°
2026-05-07 13:01 40.92262 -85.68162 25758 ft 206 kts 258°
2026-05-07 13:02 40.91942 -85.69965 25908 ft 206 kts 258°
2026-05-07 13:02 40.91619 -85.71780 26051 ft 206 kts 258°
2026-05-07 13:02 40.91297 -85.73594 26195 ft 206 kts 258°
2026-05-07 13:02 40.90978 -85.75385 26331 ft 206 kts 258°
2026-05-07 13:03 40.90654 -85.77203 26472 ft 206 kts 258°
2026-05-07 13:03 40.90335 -85.78993 26603 ft 206 kts 258°
2026-05-07 13:03 40.90010 -85.80809 26730 ft 206 kts 258°
2026-05-07 13:03 40.89687 -85.82619 26848 ft 207 kts 258°
2026-05-07 13:04 40.89367 -85.84407 26961 ft 207 kts 258°
2026-05-07 13:04 40.89044 -85.86213 27081 ft 207 kts 258°
2026-05-07 13:04 40.88721 -85.88015 27190 ft 207 kts 258°
2026-05-07 13:04 40.88424 -85.89804 27295 ft 207 kts 261°
2026-05-07 13:05 40.88232 -85.91627 27393 ft 207 kts 262°
2026-05-07 13:05 40.88044 -85.93436 27495 ft 207 kts 262°
2026-05-07 13:05 40.87853 -85.95250 27590 ft 207 kts 262°
2026-05-07 13:05 40.87659 -85.97076 27683 ft 207 kts 262°
2026-05-07 13:06 40.87465 -85.98897 27769 ft 207 kts 262°
2026-05-07 13:06 40.87269 -86.00732 27856 ft 207 kts 262°
2026-05-07 13:06 40.87072 -86.02578 27940 ft 207 kts 262°
2026-05-07 13:06 40.86875 -86.04418 28025 ft 208 kts 262°
2026-05-07 13:07 40.86677 -86.06258 28095 ft 208 kts 262°
2026-05-07 13:07 40.86477 -86.08117 28178 ft 208 kts 262°
2026-05-07 13:07 40.86277 -86.09975 28242 ft 208 kts 261°
2026-05-07 13:07 40.86077 -86.11834 28352 ft 210 kts 261°
2026-05-07 13:08 40.85877 -86.13682 28777 ft 209 kts 261°
2026-05-07 13:08 40.85675 -86.15552 29168 ft 212 kts 261°
2026-05-07 13:08 40.85462 -86.17518 29288 ft 222 kts 261°
2026-05-07 13:08 40.85245 -86.19510 29625 ft 225 kts 261°
2026-05-07 13:09 40.85027 -86.21519 30035 ft 225 kts 261°
2026-05-07 13:09 40.84807 -86.23538 30345 ft 227 kts 261°
2026-05-07 13:09 40.84583 -86.25587 30620 ft 230 kts 261°
2026-05-07 13:09 40.84360 -86.27636 30945 ft 231 kts 261°
2026-05-07 13:10 40.84137 -86.29668 31225 ft 233 kts 261°
2026-05-07 13:10 40.83935 -86.31516 31485 ft 235 kts 261°
2026-05-07 13:10 40.83715 -86.33518 31765 ft 237 kts 261°
2026-05-07 13:10 40.83481 -86.35652 32057 ft 239 kts 261°
2026-05-07 13:11 40.83243 -86.37805 32352 ft 241 kts 261°
2026-05-07 13:11 40.83005 -86.39962 32622 ft 243 kts 261°
2026-05-07 13:11 40.82767 -86.42121 32894 ft 245 kts 261°
2026-05-07 13:11 40.82529 -86.44270 33164 ft 247 kts 261°
2026-05-07 13:12 40.82289 -86.46431 33413 ft 249 kts 261°
2026-05-07 13:12 40.82056 -86.48529 33652 ft 251 kts 261°
2026-05-07 13:12 40.81808 -86.50748 33906 ft 253 kts 261°
2026-05-07 13:12 40.81559 -86.52985 34135 ft 255 kts 261°
2026-05-07 13:13 40.81308 -86.55232 34328 ft 257 kts 261°
2026-05-07 13:13 40.81054 -86.57499 34524 ft 259 kts 261°
2026-05-07 13:13 40.80811 -86.59654 34693 ft 261 kts 261°
2026-05-07 13:13 40.80543 -86.62038 34892 ft 263 kts 261°
2026-05-07 13:14 40.80274 -86.64432 35090 ft 265 kts 261°
2026-05-07 13:14 40.80001 -86.66851 35275 ft 267 kts 262°
2026-05-07 13:14 40.79725 -86.69291 35460 ft 269 kts 262°
2026-05-07 13:14 40.79447 -86.71745 35645 ft 271 kts 262°
2026-05-07 13:15 40.79171 -86.74182 35816 ft 273 kts 262°
2026-05-07 13:15 40.78885 -86.76701 35999 ft 275 kts 262°
2026-05-07 13:15 40.78628 -86.78956 36157 ft 277 kts 262°
2026-05-07 13:15 40.78388 -86.81060 36304 ft 278 kts 262°
2026-05-07 13:16 40.78097 -86.83600 36475 ft 280 kts 262°
2026-05-07 13:16 40.77806 -86.86145 36636 ft 282 kts 262°
2026-05-07 13:16 40.77512 -86.88703 36804 ft 284 kts 262°
2026-05-07 13:16 40.77215 -86.91289 36962 ft 285 kts 262°
2026-05-07 13:17 40.76918 -86.93861 37118 ft 287 kts 262°
2026-05-07 13:17 40.76626 -86.96386 37282 ft 289 kts 262°
2026-05-07 13:17 40.76323 -86.99000 37437 ft 290 kts 262°
2026-05-07 13:17 40.76017 -87.01636 37596 ft 292 kts 262°
2026-05-07 13:18 40.75731 -87.04106 37722 ft 293 kts 262°
2026-05-07 13:18 40.75421 -87.06768 37874 ft 295 kts 262°
2026-05-07 13:18 40.75108 -87.09455 37941 ft 299 kts 262°
2026-05-07 13:18 40.74789 -87.12185 37980 ft 303 kts 262°
2026-05-07 13:19 40.74134 -87.17769 38061 ft 312 kts 262°
2026-05-07 13:19 40.73456 -87.23528 38078 ft 323 kts 262°
2026-05-07 13:20 40.72752 -87.29481 38075 ft 335 kts 262°
2026-05-07 13:20 40.72018 -87.35653 38076 ft 346 kts 262°
2026-05-07 13:21 40.71259 -87.42015 38075 ft 357 kts 262°
2026-05-07 13:21 40.70471 -87.48583 38079 ft 368 kts 262°
2026-05-07 13:22 40.69661 -87.55297 38078 ft 377 kts 262°
2026-05-07 13:22 40.68828 -87.62172 38077 ft 382 kts 262°
2026-05-07 13:23 40.68007 -87.68910 38077 ft 381 kts 262°
2026-05-07 13:23 40.67166 -87.75774 38079 ft 383 kts 262°
2026-05-07 13:24 40.66316 -87.82680 38076 ft 382 kts 262°
2026-05-07 13:24 40.65181 -87.89358 38075 ft 384 kts 253°
2026-05-07 13:25 40.62896 -87.95764 38075 ft 391 kts 243°
2026-05-07 13:25 40.59512 -88.01455 38075 ft 398 kts 235°
2026-05-07 13:26 40.55834 -88.06888 38078 ft 398 kts 235°
2026-05-07 13:26 40.52155 -88.12342 38077 ft 400 kts 235°
2026-05-07 13:27 40.48448 -88.17815 38084 ft 400 kts 235°
2026-05-07 13:27 40.44769 -88.23229 38078 ft 399 kts 235°
2026-05-07 13:28 40.41084 -88.28644 38090 ft 399 kts 235°
2026-05-07 13:28 40.37435 -88.34002 38084 ft 399 kts 235°
2026-05-07 13:29 40.33801 -88.39325 38079 ft 399 kts 235°
2026-05-07 13:29 40.30193 -88.44600 38089 ft 399 kts 235°
2026-05-07 13:30 40.26688 -88.49718 38087 ft 400 kts 235°
2026-05-07 13:30 40.23035 -88.55038 38074 ft 399 kts 235°
2026-05-07 13:31 40.19522 -88.60149 38082 ft 399 kts 235°
2026-05-07 13:31 40.15905 -88.65403 38078 ft 399 kts 235°
2026-05-07 13:32 40.12265 -88.70680 38083 ft 399 kts 235°
2026-05-07 13:32 40.08716 -88.75817 38082 ft 399 kts 235°
2026-05-07 13:33 40.05120 -88.81012 38092 ft 399 kts 235°
2026-05-07 13:33 40.01500 -88.86233 38086 ft 398 kts 235°
2026-05-07 13:34 39.96126 -88.93967 38099 ft 399 kts 235°
2026-05-07 13:35 39.92492 -88.99188 38099 ft 399 kts 235°
2026-05-07 13:35 39.88926 -89.04300 38097 ft 399 kts 235°
2026-05-07 13:36 39.85286 -89.09511 38088 ft 399 kts 235°
2026-05-07 13:36 39.81652 -89.14704 38093 ft 399 kts 235°
2026-05-07 13:37 39.78318 -89.19461 38092 ft 397 kts 235°
2026-05-07 13:37 39.74699 -89.24616 38110 ft 398 kts 235°
2026-05-07 13:38 39.71066 -89.29782 38104 ft 398 kts 235°
2026-05-07 13:38 39.67411 -89.34970 38106 ft 398 kts 235°
2026-05-07 13:39 39.63816 -89.40066 38107 ft 398 kts 235°
2026-05-07 13:39 39.60211 -89.45166 38108 ft 398 kts 235°
2026-05-07 13:40 39.56616 -89.50243 38105 ft 397 kts 234°
2026-05-07 13:40 39.52982 -89.55368 38106 ft 397 kts 234°
2026-05-07 13:41 39.49368 -89.60456 38099 ft 397 kts 234°
2026-05-07 13:41 39.45759 -89.65528 38097 ft 397 kts 234°
2026-05-07 13:42 39.42777 -89.69713 38100 ft 397 kts 234°
2026-05-07 13:42 39.39162 -89.74779 38091 ft 397 kts 234°
2026-05-07 13:43 39.35536 -89.79851 38098 ft 397 kts 234°
2026-05-07 13:43 39.31890 -89.84940 38098 ft 391 kts 234°
2026-05-07 13:44 39.28269 -89.89994 38106 ft 393 kts 234°
2026-05-07 13:44 39.24884 -89.94707 38103 ft 393 kts 234°
2026-05-07 13:45 39.21267 -89.99734 38116 ft 394 kts 234°
2026-05-07 13:45 39.17742 -90.04630 38105 ft 398 kts 234°
2026-05-07 13:46 39.14104 -90.09666 38111 ft 397 kts 234°
2026-05-07 13:46 39.10502 -90.14645 38112 ft 391 kts 234°
2026-05-07 13:47 39.06942 -90.19560 38118 ft 391 kts 234°
2026-05-07 13:47 39.03441 -90.24393 38119 ft 391 kts 234°
2026-05-07 13:48 38.99893 -90.29276 38123 ft 391 kts 234°
2026-05-07 13:48 38.96500 -90.33941 38128 ft 391 kts 234°
2026-05-07 13:49 38.92899 -90.38883 38135 ft 392 kts 234°
2026-05-07 13:49 38.89265 -90.43870 38128 ft 397 kts 234°
2026-05-07 13:50 38.85692 -90.48752 38129 ft 386 kts 234°
2026-05-07 13:50 38.82230 -90.53786 38126 ft 387 kts 236°
2026-05-07 13:51 38.78808 -90.58884 38120 ft 387 kts 236°
2026-05-07 13:51 38.75695 -90.63481 38121 ft 387 kts 236°
2026-05-07 13:52 38.72289 -90.68482 38122 ft 387 kts 236°
2026-05-07 13:52 38.68851 -90.73517 38119 ft 388 kts 236°
2026-05-07 13:53 38.65425 -90.78523 38109 ft 390 kts 236°
2026-05-07 13:53 38.62010 -90.83500 38122 ft 384 kts 236°
2026-05-07 13:54 38.58602 -90.88470 38127 ft 386 kts 236°
2026-05-07 13:54 38.55128 -90.93522 38121 ft 386 kts 236°
2026-05-07 13:55 38.51651 -90.98572 38150 ft 386 kts 236°
2026-05-07 13:55 38.48169 -91.03619 38142 ft 386 kts 236°
2026-05-07 13:56 38.44669 -91.08685 38137 ft 386 kts 236°
2026-05-07 13:56 38.41193 -91.13709 38151 ft 387 kts 236°
2026-05-07 13:57 38.38111 -91.18161 38160 ft 391 kts 236°
2026-05-07 13:57 38.34570 -91.23262 38168 ft 390 kts 236°
2026-05-07 13:58 38.31049 -91.28324 38167 ft 391 kts 236°
2026-05-07 13:58 38.27553 -91.33345 38165 ft 391 kts 236°
2026-05-07 13:59 38.24058 -91.38357 38160 ft 391 kts 236°
2026-05-07 13:59 38.20523 -91.43419 38133 ft 391 kts 236°
2026-05-07 14:00 38.17040 -91.48396 38125 ft 387 kts 236°
2026-05-07 14:00 38.13532 -91.53399 38125 ft 385 kts 236°
2026-05-07 14:01 38.10020 -91.58411 38142 ft 387 kts 236°
2026-05-07 14:01 38.06529 -91.63378 38144 ft 387 kts 236°
2026-05-07 14:02 38.03026 -91.68353 38140 ft 387 kts 236°
2026-05-07 14:02 37.99547 -91.73289 38143 ft 387 kts 236°
2026-05-07 14:03 37.96016 -91.78289 38131 ft 387 kts 236°
2026-05-07 14:03 37.92498 -91.83260 38128 ft 383 kts 236°
2026-05-07 14:04 37.89451 -91.87559 38120 ft 383 kts 236°
2026-05-07 14:04 37.85981 -91.92456 38128 ft 384 kts 236°
2026-05-07 14:05 37.82496 -91.97364 38114 ft 385 kts 236°
2026-05-07 14:05 37.78998 -92.02280 38123 ft 385 kts 236°
2026-05-07 14:06 37.75545 -92.07127 38124 ft 385 kts 236°
2026-05-07 14:06 37.72028 -92.12056 38122 ft 385 kts 236°
2026-05-07 14:07 37.68523 -92.16957 38106 ft 381 kts 236°
2026-05-07 14:07 37.65043 -92.21814 38119 ft 380 kts 236°
2026-05-07 14:08 37.61552 -92.26690 38119 ft 380 kts 236°
2026-05-07 14:08 37.58062 -92.31554 38118 ft 382 kts 236°
2026-05-07 14:09 37.54559 -92.36428 38135 ft 383 kts 235°
2026-05-07 14:09 37.51062 -92.41280 38138 ft 383 kts 235°
2026-05-07 14:10 37.47630 -92.46039 38138 ft 383 kts 235°
2026-05-07 14:10 37.44244 -92.50725 38108 ft 381 kts 236°
2026-05-07 14:11 37.40786 -92.55499 38135 ft 376 kts 236°
2026-05-07 14:11 37.37324 -92.60287 38133 ft 377 kts 236°
2026-05-07 14:12 37.33853 -92.65072 38129 ft 377 kts 236°
2026-05-07 14:12 37.30388 -92.69846 38125 ft 379 kts 236°
2026-05-07 14:13 37.26888 -92.74656 38127 ft 379 kts 236°
2026-05-07 14:13 37.23394 -92.79448 38124 ft 379 kts 236°
2026-05-07 14:14 37.19917 -92.84212 38091 ft 379 kts 236°
2026-05-07 14:14 37.16560 -92.88797 38126 ft 373 kts 236°
2026-05-07 14:15 37.13100 -92.93532 38122 ft 374 kts 236°
2026-05-07 14:15 37.09729 -92.98134 38127 ft 374 kts 236°
2026-05-07 14:16 37.06280 -93.02834 38129 ft 374 kts 236°
2026-05-07 14:16 37.02816 -93.07547 38132 ft 374 kts 236°
2026-05-07 14:17 36.99344 -93.12263 38136 ft 375 kts 236°
2026-05-07 14:17 36.95883 -93.16958 38139 ft 375 kts 236°
2026-05-07 14:18 36.92556 -93.21457 38145 ft 366 kts 236°
2026-05-07 14:18 36.89212 -93.25984 38150 ft 368 kts 236°
2026-05-07 14:19 36.85883 -93.30486 38148 ft 368 kts 236°
2026-05-07 14:19 36.82507 -93.35040 38152 ft 368 kts 236°
2026-05-07 14:20 36.79088 -93.39646 38151 ft 368 kts 236°
2026-05-07 14:20 36.75673 -93.44241 38156 ft 368 kts 236°
2026-05-07 14:21 36.72249 -93.48840 38152 ft 368 kts 236°
2026-05-07 14:21 36.68836 -93.53417 38117 ft 365 kts 236°
2026-05-07 14:22 36.65487 -93.57894 38150 ft 359 kts 236°
2026-05-07 14:22 36.62243 -93.62245 38153 ft 360 kts 236°
2026-05-07 14:23 36.58882 -93.66735 38149 ft 360 kts 236°
2026-05-07 14:23 36.55524 -93.71215 38143 ft 360 kts 236°
2026-05-07 14:24 36.52144 -93.75719 38149 ft 360 kts 236°
2026-05-07 14:24 36.48791 -93.80181 38159 ft 360 kts 236°
2026-05-07 14:25 36.45426 -93.84656 38162 ft 364 kts 236°
2026-05-07 14:25 36.42107 -93.89053 38164 ft 357 kts 236°
2026-05-07 14:26 36.38805 -93.93427 38168 ft 358 kts 236°
2026-05-07 14:26 36.35620 -93.97647 38174 ft 358 kts 236°
2026-05-07 14:27 36.32355 -94.01964 38176 ft 358 kts 236°
2026-05-07 14:27 36.28982 -94.06393 38173 ft 361 kts 233°
2026-05-07 14:28 36.25690 -94.09608 38167 ft 375 kts 224°
2026-05-07 14:28 36.20944 -94.12422 38175 ft 397 kts 212°
2026-05-07 14:28 36.17450 -94.13441 38126 ft 416 kts 203°
2026-05-07 14:29 36.15562 -94.13759 38172 ft 413 kts 203°
2026-05-07 14:29 36.10067 -94.14707 38170 ft 412 kts 204°
2026-05-07 14:30 36.04523 -94.15685 38169 ft 412 kts 204°
2026-05-07 14:30 35.98993 -94.16659 38177 ft 412 kts 204°
2026-05-07 14:31 35.93933 -94.17548 38173 ft 412 kts 204°
2026-05-07 14:31 35.88622 -94.18480 38171 ft 413 kts 204°
2026-05-07 14:32 35.83086 -94.19448 38146 ft 412 kts 204°
2026-05-07 14:32 35.77564 -94.20418 38153 ft 415 kts 203°
2026-05-07 14:33 35.72027 -94.21382 38149 ft 414 kts 203°
2026-05-07 14:33 35.66445 -94.22353 38130 ft 412 kts 203°
2026-05-07 14:34 35.60879 -94.23320 38159 ft 411 kts 203°
2026-05-07 14:34 35.55851 -94.24198 38163 ft 411 kts 203°
2026-05-07 14:35 35.50262 -94.25170 38168 ft 411 kts 203°
2026-05-07 14:35 35.44728 -94.26139 38174 ft 408 kts 205°
2026-05-07 14:35 35.42019 -94.26912 38115 ft 394 kts 211°
2026-05-07 14:36 35.39489 -94.28066 38178 ft 382 kts 217°
2026-05-07 14:36 35.35054 -94.31305 38183 ft 363 kts 228°
2026-05-07 14:37 35.31292 -94.35342 38184 ft 359 kts 231°
2026-05-07 14:37 35.25696 -94.41428 38187 ft 359 kts 231°
2026-05-07 14:38 35.21953 -94.45481 38180 ft 359 kts 231°
2026-05-07 14:38 35.18506 -94.49208 38172 ft 359 kts 231°
2026-05-07 14:39 35.14821 -94.53191 38185 ft 360 kts 231°
2026-05-07 14:39 35.11066 -94.57245 38191 ft 360 kts 231°
2026-05-07 14:40 35.07484 -94.61106 38193 ft 361 kts 231°
2026-05-07 14:40 35.03710 -94.65167 38201 ft 361 kts 231°
2026-05-07 14:41 34.99943 -94.69216 38155 ft 361 kts 231°
2026-05-07 14:41 34.96176 -94.73261 38158 ft 361 kts 231°
2026-05-07 14:42 34.92412 -94.77297 38155 ft 361 kts 231°
2026-05-07 14:42 34.88656 -94.81320 38142 ft 361 kts 230°
2026-05-07 14:43 34.84902 -94.85339 38153 ft 362 kts 230°
2026-05-07 14:43 34.81203 -94.89280 38152 ft 363 kts 230°
2026-05-07 14:44 34.77413 -94.93146 38152 ft 364 kts 229°
2026-05-07 14:44 34.73673 -94.96934 38148 ft 364 kts 229°
2026-05-07 14:45 34.69993 -95.00676 38148 ft 364 kts 229°
2026-05-07 14:45 34.66112 -95.04626 38154 ft 364 kts 229°
2026-05-07 14:46 34.62227 -95.08574 38124 ft 364 kts 229°
2026-05-07 14:46 34.58331 -95.12530 38156 ft 365 kts 229°
2026-05-07 14:47 34.54437 -95.16475 38149 ft 364 kts 229°
2026-05-07 14:47 34.50544 -95.20417 38153 ft 365 kts 229°
2026-05-07 14:48 34.46767 -95.24236 38153 ft 365 kts 229°
2026-05-07 14:48 34.42922 -95.28119 38152 ft 365 kts 229°
2026-05-07 14:49 34.39065 -95.32009 38147 ft 365 kts 229°
2026-05-07 14:49 34.35265 -95.35840 38113 ft 365 kts 229°
2026-05-07 14:50 34.31546 -95.39583 38161 ft 365 kts 228°
2026-05-07 14:50 34.27621 -95.43525 38171 ft 365 kts 228°
2026-05-07 14:51 34.23708 -95.47452 38177 ft 366 kts 228°
2026-05-07 14:51 34.19797 -95.51372 38186 ft 366 kts 228°
2026-05-07 14:52 34.15882 -95.55292 38187 ft 366 kts 228°
2026-05-07 14:52 34.11967 -95.59207 38194 ft 366 kts 228°
2026-05-07 14:53 34.08075 -95.63094 38123 ft 365 kts 228°
2026-05-07 14:53 34.04219 -95.66941 38172 ft 365 kts 228°
2026-05-07 14:54 34.00312 -95.70833 38172 ft 365 kts 228°
2026-05-07 14:54 33.96472 -95.74655 38173 ft 366 kts 228°
2026-05-07 14:55 33.92758 -95.78346 38173 ft 366 kts 228°
2026-05-07 14:55 33.88906 -95.82170 38177 ft 366 kts 228°
2026-05-07 14:56 33.85113 -95.85930 38176 ft 366 kts 228°
2026-05-07 14:56 33.81301 -95.89705 38144 ft 366 kts 228°
2026-05-07 14:57 33.77339 -95.93625 38175 ft 367 kts 227°
2026-05-07 14:57 33.73389 -95.97527 38184 ft 367 kts 227°
2026-05-07 14:58 33.69493 -96.01371 38184 ft 367 kts 227°
2026-05-07 14:58 33.65554 -96.05252 38184 ft 367 kts 227°
2026-05-07 14:59 33.61854 -96.08894 38192 ft 367 kts 227°
2026-05-07 14:59 33.57897 -96.12785 38188 ft 368 kts 227°
2026-05-07 15:00 33.53934 -96.16675 38192 ft 368 kts 227°
2026-05-07 15:00 33.50025 -96.20509 38193 ft 368 kts 227°
2026-05-07 15:01 33.46243 -96.24216 38195 ft 368 kts 227°
2026-05-07 15:01 33.42775 -96.28316 38194 ft 360 kts 235°
2026-05-07 15:02 33.39574 -96.32757 38191 ft 360 kts 235°
2026-05-07 15:02 33.36466 -96.37034 37837 ft 346 kts 235°
2026-05-07 15:03 33.34931 -96.39146 37161 ft 345 kts 235°
2026-05-07 15:03 33.33416 -96.41233 36319 ft 348 kts 235°
2026-05-07 15:03 33.31859 -96.43384 35436 ft 352 kts 235°
2026-05-07 15:03 33.30297 -96.45571 34567 ft 356 kts 235°
2026-05-07 15:04 33.28708 -96.47810 33601 ft 360 kts 235°
2026-05-07 15:04 33.27148 -96.50007 32623 ft 363 kts 234°
2026-05-07 15:04 33.25538 -96.52191 31655 ft 368 kts 233°
2026-05-07 15:04 33.23876 -96.54374 30671 ft 371 kts 232°
2026-05-07 15:05 33.22184 -96.56583 29531 ft 376 kts 232°
2026-05-07 15:05 33.20486 -96.58802 28214 ft 382 kts 233°
2026-05-07 15:05 33.19025 -96.60719 27014 ft 390 kts 233°
2026-05-07 15:05 33.17232 -96.63088 25567 ft 400 kts 233°
2026-05-07 15:06 33.15403 -96.65576 24067 ft 410 kts 234°
2026-05-07 15:06 33.13555 -96.68126 22792 ft 414 kts 234°
2026-05-07 15:06 33.11723 -96.70647 21827 ft 407 kts 234°
2026-05-07 15:06 33.09909 -96.73135 20862 ft 402 kts 234°
2026-05-07 15:07 33.08132 -96.75568 19902 ft 398 kts 234°
2026-05-07 15:07 33.06327 -96.78035 18973 ft 394 kts 234°
2026-05-07 15:07 33.04582 -96.80403 18033 ft 391 kts 234°
2026-05-07 15:07 33.02863 -96.82728 17080 ft 387 kts 234°
2026-05-07 15:08 33.01126 -96.85076 16114 ft 383 kts 234°
2026-05-07 15:08 32.99498 -96.87253 15339 ft 382 kts 232°
2026-05-07 15:08 32.97420 -96.89205 14319 ft 391 kts 218°
2026-05-07 15:08 32.94937 -96.90466 13330 ft 400 kts 202°
2026-05-07 15:09 32.92209 -96.90974 12406 ft 405 kts 190°
2026-05-07 15:09 32.89535 -96.91128 11562 ft 402 kts 187°
2026-05-07 15:09 32.86802 -96.91220 10737 ft 397 kts 186°
2026-05-07 15:09 32.84165 -96.91331 9944 ft 392 kts 186°
2026-05-07 15:10 32.81525 -96.91476 9046 ft 388 kts 187°
2026-05-07 15:10 32.78908 -96.91600 8191 ft 386 kts 184°
2026-05-07 15:10 32.76289 -96.91589 7389 ft 382 kts 183°
2026-05-07 15:10 32.73689 -96.91585 6595 ft 379 kts 183°
2026-05-07 15:11 32.71343 -96.91589 5815 ft 378 kts 182°
2026-05-07 15:11 32.68767 -96.91599 4979 ft 377 kts 181°
2026-05-07 15:11 32.66164 -96.91612 4128 ft 375 kts 180°
2026-05-07 15:11 32.63622 -96.91618 3374 ft 371 kts 179°
2026-05-07 15:12 32.61121 -96.91619 2778 ft 362 kts 179°
2026-05-07 15:12 32.58694 -96.91612 2093 ft 356 kts 179°
2026-05-07 15:12 32.56286 -96.91605 1343 ft 352 kts 179°
2026-05-07 15:12 32.53936 -96.91595 752 ft 344 kts 180°
2026-05-07 15:13 32.52146 -96.91495 1219 ft 294 kts 169°
2026-05-07 15:13 32.50356 -96.90713 1436 ft 295 kts 148°
2026-05-07 15:13 32.48958 -96.89257 1427 ft 292 kts 125°
2026-05-07 15:13 32.48037 -96.87164 1072 ft 286 kts 103°
2026-05-07 15:14 32.47903 -96.84784 1277 ft 283 kts 80°
2026-05-07 15:14 32.48402 -96.82979 1325 ft 287 kts 61°
2026-05-07 15:14 32.49160 -96.81677 1240 ft 281 kts 46°